Bellaire, MI

11:54 PM EDT on May 22, 2017 (GMT -0400)
Antrim County

Weather History for KACB - May, 2014

Change the Weather History Date:

Tuesday, May 13, 2014

  Actual Average (KCVX) Record (KCVX)
Temperature  
Mean Temperature 61 °F -  
Max Temperature 70 °F 61 °F 73 °F (2008)
Min Temperature 50 °F 44 °F 33 °F (2001)
Degree Days  
Heating Degree Days 4    
Growing Degree Days 11 (Base 50)    
Moisture  
Dew Point 56 °F    
Average Humidity 85    
Maximum Humidity 94    
Minimum Humidity 71    
Precipitation  
Precipitation 0.00 in - - ()
Sea Level Pressure  
Sea Level Pressure 29.88 in    
Wind  
Wind Speed 2 mph (SW)    
Max Wind Speed 7 mph    
Max Gust Speed -    
Visibility 8 miles    
Events Rain    
Averages and records for this station are not official NWS values.
T = Trace of Precipitation, MM = Missing Value Source: NWS Daily Summary

Daily Weather History Graph

Daily Weather History Graph

Search for Another Location

Airport or City:

Trip Planner

Search our weather history database for the weather conditions in past years. The results will help you decide how hot, cold, wet, or windy it might be!

Date:

Astronomy

May. 13, 2014 Rise Set
Actual Time 6:14 AM EDT 9:00 PM EDT
Civil Twilight 5:40 AM EDT 9:34 PM EDT
Nautical Twilight 4:57 AM EDT 10:18 PM EDT
Astronomical Twilight 4:07 AM EDT 11:08 PM EDT
Moon 7:58 PM EDT (5/13) 5:34 AM EDT (5/13)
Length of Visible Light 15h 54m
Length of Day
14h 46m
Waxing Gibbous, 98% of the Moon is Illuminated
May 13
Waxing Gibbous
May 14
Full
May 21
Last Quarter
May 28
New
Jun 5
First Quarter

Hourly Weather History & Observations

Time (EDT) Temp. Dew Point Humidity Pressure Visibility Wind Dir Wind Speed Gust Speed Precip Events Conditions
12:13 AM 61.2 °F 59.4 °F 94% 29.86 in 5.0 mi Calm Calm - N/A Rain Light Rain
12:33 AM 61.9 °F 60.1 °F 94% 29.85 in 5.0 mi NNW 3.5 mph - N/A   Overcast
12:53 AM 62.2 °F 60.6 °F 94% 29.85 in 7.0 mi Calm Calm - N/A   Overcast
1:13 AM 63.5 °F 61.7 °F 94% 29.84 in 10.0 mi South 4.6 mph - N/A   Scattered Clouds
1:33 AM 65.7 °F 61.7 °F 87% 29.85 in 10.0 mi South 3.5 mph - N/A   Scattered Clouds
2:13 AM 63.5 °F 60.3 °F 89% 29.83 in 10.0 mi NNE 4.6 mph - N/A   Clear
2:33 AM 62.2 °F 59.9 °F 92% 29.82 in 10.0 mi Calm Calm - N/A   Clear
2:52 AM 63.1 °F 60.8 °F 92% 29.83 in 10.0 mi SE 3.5 mph - N/A   Mostly Cloudy
3:33 AM 63.5 °F 61.3 °F 93% 29.80 in 7.0 mi East 3.5 mph - N/A   Mostly Cloudy
3:53 AM 63.9 °F 61.3 °F 91% 29.79 in 7.0 mi Calm Calm - N/A   Overcast
4:13 AM 63.0 °F 61.0 °F 93% 29.77 in 5.0 mi NNE 3.5 mph - N/A   Overcast
4:33 AM 63.5 °F 61.3 °F 93% 29.76 in 7.0 mi Calm Calm - N/A   Mostly Cloudy
4:53 AM 63.9 °F 61.5 °F 92% 29.76 in 7.0 mi Calm Calm - N/A   Scattered Clouds
5:13 AM 62.6 °F 60.3 °F 92% 29.76 in 4.0 mi Calm Calm - N/A   Clear
5:33 AM 64.2 °F 62.2 °F 93% 29.74 in 7.0 mi East 3.5 mph - N/A   Clear
5:53 AM 64.9 °F 61.7 °F 89% 29.75 in 7.0 mi Calm Calm - N/A   Scattered Clouds
6:13 AM 65.3 °F 61.9 °F 89% 29.76 in 10.0 mi Calm Calm - N/A   Mostly Cloudy
6:33 AM 65.3 °F 62.6 °F 91% 29.79 in 7.0 mi Calm Calm - N/A   Overcast
6:53 AM 66.0 °F 63.0 °F 90% 29.80 in 5.0 mi SE 3.5 mph - N/A   Overcast
7:13 AM 65.8 °F 63.0 °F 90% 29.81 in 5.0 mi West 3.5 mph - N/A   Overcast
7:33 AM 63.9 °F 61.3 °F 91% 29.83 in 3.0 mi Calm Calm - N/A   Overcast
7:53 AM 63.3 °F 61.0 °F 92% 29.83 in 3.0 mi South 3.5 mph - N/A   Overcast
8:13 AM 62.1 °F 60.1 °F 93% 29.85 in 2.5 mi SSW 3.5 mph - N/A   Overcast
9:13 AM 63.9 °F 61.2 °F 91% 29.85 in 7.0 mi South 3.5 mph - N/A   Mostly Cloudy
9:33 AM 65.8 °F 60.8 °F 84% 29.85 in 10.0 mi South 4.6 mph - N/A   Scattered Clouds
9:53 AM 67.1 °F 60.8 °F 80% 29.83 in 10.0 mi South 5.8 mph - N/A   Scattered Clouds
10:13 AM 68.9 °F 60.8 °F 75% 29.82 in 10.0 mi SSW 5.8 mph - N/A   Mostly Cloudy
10:53 AM 69.6 °F 60.4 °F 73% 29.82 in 10.0 mi SSW 5.8 mph - N/A   Overcast
12:33 PM 70.0 °F 60.3 °F 71% 29.83 in 10.0 mi SSW 5.8 mph - N/A   Overcast
12:53 PM 70.0 °F 60.4 °F 72% 29.83 in 10.0 mi WSW 5.8 mph - N/A   Overcast
1:33 PM 60.6 °F 57.4 °F 89% 29.85 in 7.0 mi West 5.8 mph - N/A Rain Light Rain
1:53 PM 60.3 °F 56.5 °F 87% 29.86 in 10.0 mi WNW 4.6 mph - N/A   Overcast
2:13 PM 59.7 °F 56.5 °F 89% 29.88 in 2.5 mi Calm Calm - N/A Rain Heavy Rain
2:33 PM 59.0 °F 56.3 °F 91% 29.89 in 3.0 mi Calm Calm - N/A Rain Light Rain
2:53 PM 58.3 °F 55.9 °F 92% 29.90 in 5.0 mi SW 4.6 mph - N/A   Drizzle
3:13 PM 57.0 °F 54.5 °F 91% 29.90 in 1.8 mi West 6.9 mph - N/A   Overcast
3:34 PM 56.7 °F 54.5 °F 92% 29.90 in 5.0 mi WSW 4.6 mph - N/A   Overcast
3:53 PM 56.5 °F 54.0 °F 91% 29.90 in 10.0 mi WSW 4.6 mph - N/A   Overcast
4:13 PM 56.3 °F 52.9 °F 88% 29.91 in 10.0 mi SW 6.9 mph - N/A   Overcast
4:34 PM 56.5 °F 52.3 °F 86% 29.91 in 10.0 mi Calm Calm - N/A   Overcast
4:53 PM 57.0 °F 51.6 °F 82% 29.92 in 10.0 mi SW 3.5 mph - N/A   Overcast
5:13 PM 56.8 °F 50.0 °F 78% 29.92 in 10.0 mi SW 4.6 mph - N/A   Overcast
5:34 PM 56.3 °F 49.5 °F 78% 29.93 in 10.0 mi West 5.8 mph - N/A   Overcast
5:53 PM 56.1 °F 48.0 °F 74% 29.94 in 10.0 mi West 5.8 mph - N/A   Overcast
6:13 PM 55.4 °F 47.3 °F 74% 29.95 in 10.0 mi WSW 6.9 mph - N/A   Overcast
6:33 PM 55.4 °F 46.9 °F 73% 29.95 in 10.0 mi WSW 4.6 mph - N/A   Overcast
6:53 PM 55.4 °F 46.8 °F 73% 29.95 in 10.0 mi Calm Calm - N/A   Overcast
7:14 PM 55.4 °F 46.6 °F 72% 29.95 in 10.0 mi Calm Calm - N/A   Overcast
7:33 PM 55.6 °F 47.1 °F 73% 29.96 in 10.0 mi Calm Calm - N/A   Mostly Cloudy
8:14 PM 55.4 °F 46.9 °F 73% 29.97 in 10.0 mi SW 3.5 mph - N/A   Scattered Clouds
8:33 PM 55.4 °F 47.7 °F 75% 29.97 in 10.0 mi Calm Calm - N/A   Scattered Clouds
8:53 PM 55.0 °F 47.7 °F 76% 29.98 in 10.0 mi Calm Calm - N/A   Mostly Cloudy
9:14 PM 54.9 °F 48.2 °F 78% 30.00 in 10.0 mi Calm Calm - N/A   Overcast
9:33 PM 54.9 °F 48.4 °F 79% 30.00 in 10.0 mi Calm Calm - N/A   Overcast
9:53 PM 54.7 °F 48.6 °F 80% 30.00 in 10.0 mi Calm Calm - N/A   Overcast
10:14 PM 54.9 °F 48.4 °F 79% 30.02 in 10.0 mi Calm Calm - N/A   Overcast
10:53 PM 53.6 °F 48.2 °F 82% 30.03 in 10.0 mi Calm Calm - N/A   Overcast
11:14 PM 52.9 °F 48.4 °F 85% 30.03 in 10.0 mi Calm Calm - N/A   Overcast
11:33 PM 52.2 °F 47.7 °F 85% 30.04 in 10.0 mi Calm Calm - N/A   Overcast
11:53 PM 50.9 °F 46.6 °F 85% 30.04 in 10.0 mi NNW 3.5 mph - N/A   Overcast